Fort Sill, OK

3:28 AM CST on November 18, 2017 (GMT -0600)
Post Army Air Field

Weather History for KFSI - May, 2013

Change the Weather History Date:

Tuesday, May 28, 2013

  Actual Average Record
Temperature  
Mean Temperature 76 °F -  
Max Temperature 79 °F 84 °F 101 °F (2011)
Min Temperature 74 °F 62 °F 49 °F (1976)
Cooling Degree Days 12    
Growing Degree Days 26 (Base 50)    
Moisture  
Dew Point 67 °F    
Average Humidity 73    
Maximum Humidity 85    
Minimum Humidity 63    
Precipitation  
Precipitation 0.00 in - - ()
Sea Level Pressure  
Sea Level Pressure 29.72 in    
Wind  
Wind Speed 15 mph (SSE)    
Max Wind Speed 25 mph    
Max Gust Speed 33 mph    
Visibility 10 miles    
Events      
Averages and records for this station are not official NWS values.
T = Trace of Precipitation, MM = Missing Value Source: NWS Daily Summary

Daily Weather History Graph

Daily Weather History Graph

Search for Another Location

Airport or City:

Trip Planner

Search our weather history database for the weather conditions in past years. The results will help you decide how hot, cold, wet, or windy it might be!

Date:

Astronomy

May. 28, 2013 Rise Set
Actual Time 6:23 AM CDT 8:39 PM CDT
Civil Twilight 5:54 AM CDT 9:07 PM CDT
Nautical Twilight 5:19 AM CDT 9:43 PM CDT
Astronomical Twilight 4:40 AM CDT 10:21 PM CDT
Moon No Moon Rise 10:09 AM CDT (5/28)
Length of Visible Light 15h 13m
Length of Day
14h 16m
Waning Gibbous, 82% of the Moon is Illuminated
May 28
Waning Gibbous
May 31
Last Quarter
Jun 8
New
Jun 16
First Quarter
Jun 23
Full

Hourly Weather History & Observations

Time (CDT) Temp. Dew Point Humidity Pressure Visibility Wind Dir Wind Speed Gust Speed Precip Events Conditions
12:58 AM 79.0 °F 68.2 °F 69% 29.72 in 10.0 mi South 12.7 mph - N/A   Clear
1:58 AM 78.3 °F 68.4 °F 71% 29.69 in 10.0 mi South 15.0 mph 23.0 mph N/A   Clear
2:58 AM 76.6 °F 68.5 °F 76% 29.69 in 10.0 mi SSW 12.7 mph - N/A   Clear
3:58 AM 75.2 °F 68.9 °F 81% 29.69 in 10.0 mi South 12.7 mph - N/A   Mostly Cloudy
4:58 AM 75.6 °F 69.4 °F 81% 29.70 in 10.0 mi South 12.7 mph - N/A   Overcast
5:58 AM 74.7 °F 69.6 °F 84% 29.73 in 10.0 mi South 11.5 mph - N/A   Overcast
6:58 AM 74.1 °F 69.4 °F 85% 29.75 in 10.0 mi South 12.7 mph - N/A   Overcast
7:58 AM 74.1 °F 69.1 °F 84% 29.76 in 10.0 mi SSE 16.1 mph - N/A   Overcast
8:58 AM 74.5 °F 68.2 °F 81% 29.75 in 10.0 mi South 23.0 mph 27.6 mph N/A   Mostly Cloudy
9:58 AM 76.3 °F 68.0 °F 75% 29.76 in 10.0 mi South 23.0 mph 31.1 mph N/A   Partly Cloudy
10:58 AM 77.4 °F 66.7 °F 70% 29.75 in 10.0 mi South 25.3 mph 33.4 mph N/A   Scattered Clouds
11:58 AM 77.4 °F 64.9 °F 65% 29.76 in 10.0 mi South 20.7 mph 31.1 mph N/A   Overcast
12:58 PM 76.6 °F 65.5 °F 68% 29.75 in 10.0 mi South 15.0 mph - N/A   Scattered Clouds
1:58 PM 76.8 °F 65.3 °F 67% 29.75 in 10.0 mi South 18.4 mph 26.5 mph N/A   Overcast
2:58 PM 78.3 °F 66.0 °F 66% 29.73 in 10.0 mi South 18.4 mph 29.9 mph N/A   Overcast
3:58 PM 78.8 °F 65.8 °F 64% 29.73 in 10.0 mi South 23.0 mph 32.2 mph N/A   Scattered Clouds
4:58 PM 79.5 °F 66.0 °F 63% 29.73 in 10.0 mi South 16.1 mph 28.8 mph N/A   Partly Cloudy
5:58 PM 78.4 °F 66.2 °F 66% 29.68 in 10.0 mi SSE 18.4 mph - N/A   Clear
6:58 PM 78.6 °F 66.4 °F 66% 29.64 in 10.0 mi SSE 9.2 mph 25.3 mph N/A   Clear
7:58 PM 77.7 °F 67.3 °F 70% 29.68 in 10.0 mi SE 16.1 mph - N/A   Partly Cloudy
8:58 PM 77.0 °F 67.1 °F 71% 29.67 in 10.0 mi SSE 10.4 mph - N/A   Overcast
9:58 PM 76.6 °F 67.1 °F 72% 29.70 in 10.0 mi East 6.9 mph - N/A   Overcast
10:58 PM 75.9 °F 67.5 °F 75% 29.71 in 10.0 mi East 8.1 mph - N/A   Overcast
11:58 PM 75.4 °F 67.3 °F 76% 29.72 in 10.0 mi ESE 10.4 mph - N/A   Overcast